GFSNGP_850_dewp_156.txt.gz
Dewpoint
-5 -6 -5 -4 -4 -3 -1 -1 3 2 -2 -3 -4 -2 -1 3 2 1 -0 -2 -3 -5 -11 -21 -29 -28 -18 -18 -19 -16 -18 -11 -11 -13 -13 -11 -13 -12 -12 -12 -14 -19 -29 -30
0 -3 -3 -1 0 1 -3 -4 -4 -4 -3 -5 -5 -3 -0 3 1 0 -1 -2 -4 -6 -8 -19 -15 -9 -10 -11 -11 -12 -12 -13 -12 -12 -12 -12 -13 -13 -13 -15 -16 -21 -32 -34
2 -2 -3 1 1 0 -4 -6 -5 -3 -4 -5 -3 0 0 2 1 0 -1 -3 -5 -8 -10 -11 -11 -11 -10 -11 -11 -12 -13 -12 -12 -12 -11 -12 -13 -14 -15 -16 -20 -24 -28 -35
3 1 3 -1 -7 -8 -7 -7 -6 -4 -6 -3 1 1 0 1 1 -0 -2 -4 -7 -9 -11 -11 -12 -11 -11 -11 -11 -12 -12 -12 -12 -12 -12 -13 -12 -13 -16 -20 -24 -29 -32 -33
3 2 -2 -4 -7 -8 -0 2 0 -4 -2 1 0 -0 0 1 0 -1 -3 -5 -8 -9 -10 -10 -11 -11 -11 -11 -10 -12 -14 -15 -16 -18 -17 -16 -16 -14 -14 -16 -21 -25 -30 -30
2 4 1 -5 1 -0 -5 1 -3 -4 -2 0 -1 2 2 -0 -1 -2 -4 -6 -7 -9 -9 -10 -11 -11 -10 -10 -12 -18 -20 -21 -22 -24 -23 -22 -21 -18 -15 -16 -14 -14 -17 -21
4 2 -2 -7 1 0 1 2 -1 -2 -3 -2 1 3 0 -1 -1 -3 -5 -6 -6 -8 -9 -9 -10 -10 -9 -9 -18 -22 -22 -23 -24 -25 -24 -23 -20 -17 -13 -14 -12 -10 -11 -13
2 2 3 -6 -2 0 1 -1 -2 -3 -2 1 1 1 0 -1 -3 -4 -6 -7 -8 -10 -10 -9 -10 -10 -10 -11 -17 -19 -20 -21 -22 -24 -25 -24 -20 -12 -13 -10 -10 -10 -10 -11
-2 -0 2 -0 -0 -0 -1 -2 -1 -2 -2 0 -1 -0 -1 -2 -3 -5 -7 -9 -11 -12 -10 -11 -11 -11 -11 -11 -11 -11 -14 -16 -19 -21 -21 -17 -15 -15 -11 -10 -11 -11 -11 -11
3 1 2 2 -0 -1 -2 -2 -2 -2 -2 -1 -1 -1 -2 -3 -4 -6 -9 -11 -12 -12 -11 -11 -12 -12 -12 -11 -11 -11 -11 -12 -16 -12 -13 -12 -12 -16 -27 -23 -13 -12 -12 -17
3 -0 -2 -1 -1 -1 -1 -2 -2 -2 -2 -2 -2 -2 -3 -4 -6 -9 -10 -12 -13 -12 -12 -12 -12 -13 -12 -12 -12 -12 -12 -12 -13 -17 -13 -15 -19 -24 -27 -30 -30 -29 -23 -19
4 -0 -1 0 -1 -1 -1 -1 -2 -2 -2 -2 -3 -3 -4 -5 -7 -10 -11 -12 -12 -12 -12 -12 -12 -13 -12 -12 -12 -13 -13 -14 -13 -13 -14 -13 -14 -15 -16 -17 -23 -25 -28 -28
1 0 0 -0 -0 -1 -1 -2 -2 -2 -3 -3 -3 -4 -5 -6 -8 -10 -11 -12 -13 -13 -13 -13 -13 -13 -12 -12 -13 -13 -13 -13 -13 -13 -13 -13 -15 -13 -12 -12 -14 -15 -16 -17
-0 -1 -1 -2 -2 -2 -2 -2 -3 -3 -3 -3 -4 -4 -5 -6 -8 -10 -11 -11 -13 -13 -14 -14 -13 -13 -12 -11 -12 -12 -13 -13 -13 -14 -13 -14 -14 -14 -15 -12 -13 -12 -13 -14
-1 -2 -2 -3 -2 -3 -3 -3 -3 -3 -3 -3 -4 -5 -6 -7 -9 -10 -10 -12 -14 -14 -14 -13 -13 -12 -12 -12 -12 -12 -13 -13 -13 -15 -18 -17 -18 -18 -14 -13 -13 -14 -12 -12
-2 -3 -3 -3 -3 -3 -3 -4 -4 -3 -3 -4 -4 -5 -6 -7 -8 -9 -10 -12 -14 -14 -14 -14 -14 -15 -17 -19 -20 -18 -16 -14 -15 -12 -13 -16 -13 -12 -12 -12 -13 -13 -12 -12
-2 -2 -3 -3 -3 -4 -4 -4 -3 -3 -3 -4 -4 -5 -6 -7 -8 -9 -10 -12 -13 -13 -14 -14 -17 -19 -21 -25 -22 -12 -12 -13 -14 -12 -11 -12 -12 -12 -12 -13 -13 -13 -13 -13
-2 -2 -3 -3 -4 -3 -3 -3 -3 -4 -4 -4 -5 -5 -7 -6 -7 -9 -10 -11 -13 -13 -14 -17 -19 -21 -23 -24 -24 -10 -10 -11 -11 -14 -11 -12 -13 -12 -12 -13 -14 -14 -13 -14
-3 -4 -4 -3 -3 -3 -3 -3 -3 -4 -4 -5 -6 -6 -7 -6 -7 -8 -10 -11 -13 -14 -17 -18 -19 -22 -24 -25 -26 -18 -11 -11 -11 -12 -12 -12 -12 -14 -14 -13 -13 -13 -15 -16
-4 -3 -3 -3 -3 -3 -3 -3 -3 -4 -4 -5 -6 -6 -7 -7 -7 -8 -9 -12 -15 -15 -14 -17 -19 -21 -23 -26 -28 -20 -12 -12 -12 -12 -12 -13 -14 -13 -13 -14 -15 -15 -16 -16
-3 -2 -3 -3 -3 -3 -3 -4 -5 -6 -6 -7 -7 -8 -8 -9 -9 -10 -11 -12 -12 -13 -16 -17 -19 -20 -22 -23 -26 -13 -12 -12 -13 -14 -14 -13 -13 -14 -14 -15 -15 -16 -17 -18
-3 -3 -4 -4 -4 -4 -5 -5 -6 -7 -7 -8 -8 -9 -9 -10 -10 -11 -12 -10 -11 -14 -17 -18 -19 -19 -22 -24 -16 -13 -13 -13 -13 -14 -14 -14 -15 -15 -15 -16 -16 -18 -19 -21
-5 -5 -5 -5 -6 -6 -7 -7 -7 -8 -8 -9 -9 -10 -10 -10 -11 -11 -12 -12 -13 -14 -17 -17 -18 -20 -21 -18 -13 -13 -13 -13 -14 -14 -14 -15 -15 -16 -16 -18 -22 -26 -28 -28
-5 -5 -5 -5 -6 -6 -6 -7 -7 -8 -8 -9 -9 -10 -11 -10 -11 -9 -8 -9 -12 -16 -14 -15 -17 -19 -18 -12 -12 -13 -13 -14 -14 -15 -15 -16 -16 -19 -24 -28 -30 -30 -30 -29
-4 -5 -5 -5 -5 -5 -6 -7 -7 -8 -8 -9 -9 -10 -10 -8 -8 -9 -9 -10 -13 -14 -12 -12 -14 -16 -13 -13 -13 -14 -14 -15 -15 -15 -16 -17 -22 -28 -30 -30 -30 -30 -28 -28
-4 -4 -5 -4 -3 -5 -5 -7 -6 -7 -7 -8 -8 -9 -9 -8 -8 -8 -9 -10 -11 -11 -11 -13 -13 -13 -13 -14 -14 -14 -15 -15 -16 -17 -22 -28 -30 -31 -31 -30 -30 -29 -29 -28
-4 -5 -5 -5 -5 -5 -5 -5 -5 -6 -6 -7 -7 -8 -8 -9 -9 -10 -11 -12 -12 -12 -13 -13 -13 -13 -14 -14 -14 -15 -16 -17 -21 -28 -30 -31 -31 -30 -30 -29 -29 -29 -28 -27

GFSNGP_850_dewp_159.txt.gz
Dewpoint
-2 -3 -4 -3 -2 -2 -1 -2 1 -1 0 -0 -2 -3 1 2 2 1 0 -0 -1 -3 -8 -19 -17 -29 -29 -23 -19 -18 -15 -14 -14 -14 -13 -14 -14 -15 -17 -21 -28 -35 -34 -33
1 -1 -2 -1 -1 -1 -1 -2 -1 -2 -2 -5 -6 -0 3 3 2 1 -0 -1 -2 -4 -8 -10 -24 -20 -13 -12 -12 -12 -14 -13 -13 -13 -13 -15 -16 -18 -22 -26 -31 -37 -36 -32
3 1 0 1 -1 -1 -2 -3 -3 -2 -4 -4 1 2 3 3 2 0 -0 -2 -3 -5 -6 -18 -18 -11 -10 -11 -12 -12 -12 -12 -12 -12 -12 -13 -17 -20 -25 -31 -35 -36 -37 -37
2 2 3 -1 -3 -4 -4 -5 -6 0 0 1 2 2 1 2 1 0 -1 -2 -4 -6 -10 -11 -10 -11 -11 -12 -12 -13 -13 -12 -12 -14 -14 -14 -16 -19 -23 -29 -32 -32 -34 -36
3 2 -0 -2 -4 -4 -0 1 1 1 3 2 0 0 1 1 1 -0 -2 -3 -6 -8 -11 -11 -12 -11 -11 -11 -11 -13 -14 -15 -15 -16 -17 -18 -18 -18 -18 -20 -20 -21 -24 -30
3 4 3 -2 0 0 0 3 0 -0 1 1 -0 1 -1 0 0 -2 -3 -4 -7 -10 -11 -12 -11 -11 -11 -11 -12 -15 -17 -19 -21 -22 -21 -20 -18 -18 -16 -15 -14 -14 -17 -24
3 3 2 -3 -1 -2 3 2 -1 -2 -0 -1 1 2 0 -1 -2 -3 -4 -6 -8 -9 -10 -11 -11 -11 -11 -12 -14 -18 -20 -21 -23 -23 -23 -22 -19 -17 -15 -14 -15 -13 -15 -18
3 4 4 1 1 2 1 -1 -2 -2 -1 1 1 0 -1 -1 -4 -5 -5 -6 -6 -9 -10 -10 -11 -11 -11 -13 -19 -21 -22 -23 -25 -26 -26 -22 -19 -16 -15 -15 -12 -11 -14 -17
2 1 0 0 0 1 -0 -1 -2 -2 -1 -1 -0 -0 -1 -2 -4 -5 -6 -6 -10 -9 -9 -9 -10 -10 -10 -12 -18 -18 -20 -23 -25 -25 -23 -20 -18 -18 -18 -16 -15 -14 -14 -20
3 0 2 2 1 -1 -1 -1 -2 -2 -1 -1 -1 -1 -1 -3 -4 -6 -7 -9 -10 -10 -10 -10 -10 -10 -11 -13 -13 -15 -18 -19 -21 -20 -18 -16 -17 -19 -26 -23 -23 -22 -22 -22
3 2 2 2 2 1 -1 -2 -2 -2 -1 -2 -1 -1 -3 -3 -4 -7 -9 -11 -12 -11 -11 -11 -12 -12 -11 -12 -13 -13 -14 -16 -17 -15 -16 -15 -16 -20 -26 -28 -30 -30 -29 -29
4 2 1 2 1 0 -1 -2 -2 -2 -2 -2 -2 -2 -3 -4 -5 -9 -10 -12 -12 -12 -12 -12 -12 -12 -12 -12 -13 -12 -12 -13 -14 -16 -15 -14 -14 -15 -16 -16 -16 -20 -20 -20
2 1 -1 -1 -0 -1 -1 -1 -2 -2 -2 -3 -3 -3 -4 -5 -7 -10 -11 -12 -13 -12 -12 -12 -12 -13 -12 -12 -13 -12 -12 -13 -14 -13 -13 -14 -14 -15 -15 -14 -14 -15 -15 -15
-0 -1 -1 -1 -2 -1 -1 -2 -2 -3 -3 -3 -3 -4 -5 -6 -8 -11 -12 -12 -13 -13 -13 -13 -13 -13 -12 -12 -12 -13 -13 -13 -13 -13 -13 -13 -13 -14 -15 -14 -17 -16 -14 -14
-1 -1 -2 -3 -2 -2 -2 -3 -3 -3 -3 -4 -4 -5 -6 -7 -9 -10 -11 -12 -13 -13 -13 -14 -13 -13 -12 -12 -12 -13 -13 -13 -13 -13 -14 -13 -14 -15 -16 -17 -15 -14 -13 -12
-1 -1 -2 -3 -2 -3 -3 -3 -3 -3 -3 -4 -4 -5 -6 -7 -9 -10 -10 -12 -13 -14 -14 -14 -14 -13 -13 -13 -13 -12 -12 -12 -13 -13 -13 -16 -17 -17 -14 -13 -13 -12 -12 -12
-2 -3 -3 -3 -3 -3 -3 -4 -3 -3 -3 -4 -5 -5 -6 -7 -9 -9 -10 -12 -14 -14 -14 -14 -14 -14 -14 -16 -18 -18 -18 -16 -16 -15 -15 -13 -13 -12 -12 -12 -12 -13 -13 -13
-2 -2 -2 -3 -3 -4 -4 -3 -3 -3 -3 -4 -4 -5 -6 -7 -8 -9 -10 -11 -12 -14 -14 -14 -14 -16 -18 -21 -22 -17 -14 -12 -12 -13 -13 -11 -11 -12 -13 -12 -13 -13 -13 -14
-3 -3 -3 -3 -3 -4 -3 -3 -3 -4 -4 -4 -4 -5 -7 -7 -8 -8 -9 -10 -11 -13 -13 -13 -16 -18 -20 -23 -22 -12 -11 -10 -11 -12 -12 -11 -12 -12 -13 -14 -13 -13 -13 -14
-4 -4 -3 -3 -3 -3 -3 -3 -3 -4 -4 -5 -5 -6 -6 -6 -6 -7 -9 -10 -11 -13 -14 -16 -17 -18 -21 -23 -24 -20 -11 -11 -11 -11 -12 -12 -12 -14 -13 -13 -13 -14 -15 -15
-3 -3 -3 -3 -3 -3 -4 -4 -4 -4 -5 -5 -6 -6 -7 -7 -7 -7 -8 -9 -11 -14 -13 -14 -16 -19 -20 -23 -26 -24 -17 -13 -12 -12 -12 -14 -14 -14 -13 -14 -14 -15 -16 -16
-2 -3 -3 -3 -3 -3 -4 -5 -6 -6 -7 -7 -7 -8 -8 -9 -9 -9 -11 -12 -11 -11 -14 -16 -18 -19 -20 -23 -24 -18 -14 -13 -13 -14 -14 -13 -13 -14 -14 -15 -15 -15 -16 -19
-5 -5 -5 -4 -4 -5 -6 -7 -7 -7 -8 -8 -8 -9 -9 -10 -10 -10 -11 -11 -11 -10 -13 -17 -17 -18 -20 -22 -18 -14 -13 -13 -14 -14 -14 -14 -14 -15 -15 -16 -17 -20 -26 -29
-5 -5 -6 -6 -6 -7 -7 -7 -7 -8 -8 -9 -9 -10 -10 -10 -10 -11 -10 -10 -11 -13 -15 -15 -15 -16 -18 -16 -13 -13 -13 -13 -13 -14 -14 -15 -15 -16 -18 -23 -29 -31 -31 -31
-5 -5 -5 -5 -6 -6 -6 -7 -7 -8 -8 -9 -10 -11 -10 -10 -9 -9 -9 -8 -9 -12 -13 -12 -12 -15 -15 -13 -13 -13 -13 -14 -14 -15 -15 -16 -17 -21 -29 -31 -31 -31 -30 -29
-4 -5 -5 -5 -4 -5 -6 -7 -7 -7 -8 -8 -9 -10 -9 -8 -8 -8 -8 -9 -10 -11 -11 -11 -13 -13 -13 -13 -13 -13 -14 -14 -15 -16 -17 -21 -28 -31 -31 -31 -31 -29 -29 -29
-4 -4 -4 -3 -4 -5 -6 -5 -5 -6 -6 -6 -6 -7 -7 -8 -9 -9 -9 -10 -11 -12 -12 -12 -13 -13 -13 -13 -14 -14 -15 -16 -18 -23 -29 -31 -31 -31 -30 -30 -29 -29 -29 -27

GFSNGP_850_dewp_162.txt.gz
Dewpoint
-2 -2 -2 -2 -2 -3 -1 -1 1 -3 -1 -2 -4 -3 -3 -2 2 2 1 -0 -1 -2 -3 -5 -17 -26 -24 -24 -19 -14 -14 -13 -14 -14 -15 -16 -17 -20 -25 -31 -36 -33 -31 -29
-4 -1 -0 1 -0 -1 -1 -1 -1 -2 -1 -3 -4 -4 2 1 2 2 1 -0 0 -0 -1 -6 -20 -16 -26 -18 -15 -14 -14 -13 -13 -14 -15 -17 -19 -23 -32 -34 -36 -37 -37 -34
0 0 1 2 0 0 -1 -2 -2 -0 -2 -3 -2 1 3 2 2 2 1 1 -0 -1 -3 -8 -13 -24 -15 -12 -12 -13 -13 -13 -13 -14 -15 -16 -21 -26 -34 -34 -34 -35 -36 -37
2 0 1 -3 -3 -3 -2 -3 -3 -3 1 0 1 1 2 3 2 2 1 0 -1 -3 -5 -9 -19 -14 -12 -12 -12 -12 -13 -13 -13 -14 -15 -17 -19 -23 -26 -25 -26 -30 -32 -32
1 1 -1 -2 -4 -3 -2 -2 -1 -0 2 2 1 1 2 2 2 1 1 0 -1 -5 -9 -16 -13 -11 -11 -12 -12 -13 -14 -15 -15 -15 -17 -18 -19 -18 -18 -18 -18 -23 -28 -31
1 3 3 -1 -2 -0 -1 2 0 0 2 1 -0 0 -1 1 1 1 0 -1 -3 -8 -10 -11 -11 -11 -12 -12 -12 -13 -14 -16 -16 -18 -19 -19 -19 -17 -16 -15 -15 -17 -22 -29
2 2 2 -1 -3 -1 0 -1 -1 -1 1 0 0 -1 0 1 0 -0 -1 -3 -5 -8 -10 -11 -12 -12 -12 -12 -12 -13 -16 -19 -22 -21 -20 -19 -18 -17 -16 -16 -16 -17 -19 -25
2 4 3 -2 0 1 -1 -0 -1 -2 -0 -0 -0 1 0 -0 -1 -2 -3 -5 -7 -9 -11 -11 -12 -12 -12 -12 -12 -15 -19 -21 -22 -23 -22 -20 -18 -17 -16 -16 -18 -21 -19 -25
3 1 -1 1 1 1 0 -1 -2 -2 -1 -1 -0 -0 -1 -2 -3 -4 -5 -7 -9 -9 -10 -11 -12 -12 -12 -11 -14 -19 -21 -23 -24 -23 -20 -18 -17 -18 -19 -19 -19 -21 -22 -25
2 2 2 2 2 1 -0 -1 -1 -2 -2 -1 -1 -1 -1 -3 -4 -5 -5 -6 -7 -9 -11 -10 -10 -11 -10 -11 -15 -20 -19 -20 -20 -19 -19 -18 -17 -19 -24 -24 -26 -25 -25 -29
3 2 2 2 2 -0 -0 -2 -2 -1 -1 -1 -1 -1 -2 -3 -4 -5 -6 -8 -9 -10 -9 -9 -10 -10 -11 -11 -15 -16 -17 -16 -17 -17 -17 -16 -15 -17 -24 -26 -26 -27 -28 -26
4 2 3 3 1 -1 1 -2 -2 -2 -1 -1 -2 -2 -3 -3 -4 -5 -7 -10 -11 -11 -10 -11 -11 -11 -11 -11 -12 -13 -14 -14 -15 -15 -16 -14 -14 -15 -16 -17 -16 -19 -19 -18
1 0 0 -0 1 -0 2 -2 -2 -2 -2 -2 -2 -2 -4 -4 -4 -6 -8 -11 -12 -12 -11 -11 -12 -12 -12 -12 -12 -12 -13 -13 -13 -13 -15 -14 -14 -15 -15 -15 -14 -16 -16 -15
-3 -2 0 -0 -0 -0 0 -1 -2 -2 -2 -2 -2 -3 -4 -5 -5 -8 -10 -11 -12 -12 -12 -12 -12 -12 -12 -12 -12 -12 -12 -12 -13 -14 -14 -13 -13 -14 -13 -14 -14 -17 -16 -14
-2 -2 -1 -2 -2 -1 -1 -2 -2 -3 -3 -3 -3 -4 -5 -5 -7 -9 -10 -12 -12 -12 -12 -12 -12 -13 -12 -12 -12 -13 -13 -13 -13 -13 -13 -13 -13 -13 -13 -13 -16 -15 -14 -13
-1 -1 -1 -2 -2 -2 -2 -3 -3 -3 -3 -4 -4 -4 -5 -6 -7 -11 -12 -12 -12 -13 -13 -13 -13 -13 -13 -13 -12 -12 -12 -13 -12 -12 -12 -13 -12 -13 -15 -16 -14 -13 -14 -13
0 -1 -2 -2 -2 -2 -3 -3 -3 -3 -4 -4 -5 -6 -7 -8 -10 -11 -11 -11 -12 -13 -13 -13 -14 -13 -13 -13 -13 -13 -13 -12 -12 -12 -12 -14 -14 -15 -14 -13 -12 -12 -13 -13
-1 -1 -1 -0 -3 -3 -3 -3 -3 -3 -3 -4 -5 -6 -6 -7 -8 -10 -10 -11 -13 -14 -14 -14 -14 -14 -14 -15 -16 -19 -19 -17 -15 -14 -14 -13 -13 -13 -12 -12 -12 -13 -13 -13
-1 -2 -2 -2 -3 -3 -4 -3 -3 -3 -3 -4 -4 -5 -6 -6 -8 -9 -9 -10 -12 -12 -13 -14 -14 -14 -15 -18 -20 -22 -19 -14 -11 -11 -13 -13 -12 -12 -12 -12 -13 -13 -13 -14
-2 -3 -3 -3 -4 -4 -3 -3 -3 -4 -4 -4 -4 -5 -6 -7 -8 -8 -9 -9 -10 -11 -13 -13 -13 -15 -18 -20 -22 -22 -17 -12 -11 -11 -12 -12 -12 -12 -13 -13 -13 -13 -14 -15
-3 -3 -3 -3 -3 -3 -3 -3 -3 -4 -4 -5 -5 -5 -6 -7 -7 -7 -8 -9 -9 -10 -12 -14 -15 -16 -18 -20 -22 -23 -17 -13 -12 -11 -12 -12 -12 -14 -14 -13 -14 -14 -15 -15
-3 -3 -3 -3 -3 -4 -4 -4 -4 -4 -5 -5 -6 -6 -6 -7 -7 -7 -8 -9 -10 -12 -13 -12 -14 -17 -19 -20 -22 -24 -18 -13 -12 -12 -12 -13 -13 -13 -14 -14 -15 -15 -15 -16
-3 -3 -3 -3 -3 -4 -5 -5 -6 -7 -7 -7 -7 -8 -8 -9 -9 -9 -9 -11 -11 -10 -11 -13 -16 -18 -18 -21 -23 -21 -17 -15 -14 -13 -13 -14 -14 -14 -14 -15 -15 -16 -18 -24
-5 -5 -5 -4 -5 -6 -6 -7 -7 -8 -8 -8 -9 -9 -9 -10 -10 -10 -11 -11 -11 -11 -11 -15 -17 -16 -17 -19 -19 -16 -14 -13 -13 -13 -14 -14 -14 -15 -15 -16 -19 -28 -30 -31
-5 -6 -6 -6 -7 -7 -7 -7 -8 -8 -8 -9 -9 -9 -10 -10 -10 -10 -10 -9 -8 -10 -13 -13 -13 -13 -14 -15 -14 -13 -13 -13 -13 -14 -14 -15 -15 -16 -19 -27 -31 -31 -31 -30
-5 -5 -5 -5 -6 -6 -6 -7 -7 -8 -8 -9 -9 -9 -9 -9 -8 -8 -8 -8 -9 -10 -11 -11 -11 -12 -13 -13 -13 -13 -13 -14 -14 -15 -15 -16 -20 -28 -31 -31 -31 -31 -29 -29
-5 -5 -5 -4 -4 -5 -6 -7 -6 -6 -7 -7 -7 -8 -8 -8 -8 -8 -9 -9 -10 -11 -11 -11 -12 -13 -13 -13 -13 -13 -14 -14 -15 -17 -23 -29 -31 -31 -31 -31 -30 -29 -29 -29

GFSNGP_850_dewp_165.txt.gz
Dewpoint
-3 -3 -2 -2 -2 -2 -1 -2 -1 -4 -4 -4 -3 -3 -5 -6 -5 -1 1 -0 -2 -4 -4 -4 -7 -13 -19 -21 -22 -18 -17 -16 -15 -16 -16 -17 -19 -26 -32 -36 -34 -31 -31 -32
-5 -3 -1 -0 -0 -0 -0 -0 -1 -1 -1 -4 -5 -4 -4 -4 -2 0 1 -1 -2 -3 -3 -3 -6 -12 -24 -20 -20 -18 -16 -15 -16 -15 -15 -17 -21 -30 -34 -35 -35 -35 -35 -34
-0 -1 -1 -0 -2 -2 -1 -1 -1 -0 -3 -4 -3 -3 -3 -3 1 1 1 -0 -0 -1 -2 -3 -4 -13 -19 -20 -20 -17 -15 -15 -14 -14 -14 -17 -23 -32 -30 -31 -31 -32 -32 -33
1 -1 1 -3 -5 -2 -2 -2 -3 -3 -3 -3 -2 -1 1 1 1 1 2 1 1 0 -0 -1 -4 -17 -20 -19 -15 -14 -14 -14 -14 -14 -14 -17 -21 -25 -24 -24 -28 -28 -28 -28
1 1 -2 -4 -6 -4 -2 -2 -4 -3 -3 1 1 1 1 2 2 2 1 1 1 -0 -2 -3 -11 -16 -16 -13 -13 -13 -14 -14 -14 -14 -15 -16 -17 -18 -17 -17 -22 -26 -28 -28
1 2 1 -1 -3 -2 -1 2 -2 -1 1 1 0 0 -1 1 2 2 1 1 -1 -3 -5 -7 -11 -17 -13 -12 -12 -13 -14 -14 -14 -14 -15 -16 -16 -16 -15 -15 -17 -21 -27 -29
1 1 1 -2 -3 -2 1 -1 -2 -0 0 1 -0 -1 -0 0 1 1 0 -1 -2 -6 -9 -12 -17 -13 -12 -13 -13 -13 -13 -14 -14 -15 -17 -17 -16 -15 -15 -16 -17 -19 -24 -28
2 3 2 -1 -1 1 -2 -1 -1 -1 -1 0 -0 -1 0 0 1 0 -1 -2 -4 -7 -9 -11 -12 -12 -12 -13 -13 -12 -12 -14 -16 -19 -18 -16 -15 -15 -15 -16 -17 -18 -20 -26
3 3 0 -1 1 1 1 1 -1 -2 -2 -0 -0 -0 -0 -0 -0 -1 -2 -3 -5 -7 -9 -11 -11 -12 -12 -12 -12 -12 -13 -17 -20 -19 -18 -16 -15 -14 -15 -16 -18 -19 -20 -24
2 -0 1 1 1 1 1 1 -0 -1 -2 -1 -1 -1 -1 -1 -2 -2 -3 -4 -6 -9 -10 -11 -11 -12 -12 -12 -12 -13 -17 -19 -21 -21 -19 -16 -15 -15 -16 -17 -19 -21 -24 -29
1 0 1 2 2 2 1 1 1 -1 -1 -1 -1 -1 -1 -2 -3 -4 -5 -6 -8 -10 -10 -10 -11 -11 -11 -10 -11 -15 -19 -19 -19 -18 -18 -16 -14 -15 -20 -27 -26 -26 -27 -25
1 -0 2 1 -1 2 2 1 -1 -1 -1 -1 -1 -2 -2 -3 -3 -4 -5 -6 -7 -8 -9 -11 -10 -11 -10 -11 -12 -15 -17 -17 -17 -17 -16 -15 -14 -15 -16 -17 -16 -17 -19 -18
-0 -1 0 -1 -3 -2 0 1 -0 -1 -2 -2 -2 -2 -2 -3 -3 -4 -6 -8 -10 -10 -10 -10 -11 -11 -11 -11 -11 -12 -12 -14 -14 -15 -14 -15 -15 -14 -14 -15 -14 -14 -16 -16
-1 1 -2 -3 -3 -1 -1 0 -1 -2 -2 -2 -2 -2 -3 -3 -4 -5 -6 -9 -11 -12 -11 -11 -11 -11 -12 -12 -11 -12 -12 -13 -13 -13 -14 -14 -14 -13 -13 -13 -13 -14 -16 -15
-5 -5 -4 -3 -2 -1 -1 1 -2 -2 -2 -2 -2 -3 -4 -4 -4 -5 -7 -9 -11 -12 -11 -11 -12 -12 -12 -12 -12 -12 -12 -12 -12 -13 -13 -13 -13 -13 -13 -12 -12 -14 -15 -14
-4 -2 -1 -1 -2 -2 -1 -2 -2 -2 -3 -3 -3 -3 -5 -5 -6 -7 -8 -10 -11 -12 -12 -12 -12 -12 -13 -13 -12 -12 -12 -12 -13 -13 -13 -13 -13 -13 -12 -12 -15 -15 -14 -14
-0 -2 -2 -0 -1 -2 -2 -2 -2 -3 -3 -3 -3 -4 -4 -5 -6 -8 -9 -11 -12 -12 -12 -13 -13 -13 -13 -13 -13 -12 -12 -12 -12 -12 -12 -12 -12 -11 -13 -14 -14 -13 -13 -13
-3 -1 0 -1 -1 0 1 -0 -0 -3 -4 -4 -4 -4 -5 -6 -7 -10 -12 -12 -12 -13 -13 -13 -13 -13 -13 -13 -13 -13 -13 -14 -12 -11 -11 -13 -13 -13 -13 -13 -13 -13 -13 -13
-1 -1 -0 0 0 0 -1 -2 -3 -3 -3 -4 -4 -5 -6 -7 -8 -10 -11 -11 -12 -13 -13 -14 -14 -14 -14 -14 -14 -15 -19 -19 -16 -14 -12 -13 -13 -13 -13 -13 -12 -13 -13 -13
-1 -1 -1 -2 -2 -2 -3 -3 -3 -3 -4 -4 -5 -6 -6 -7 -7 -9 -10 -10 -11 -12 -12 -13 -14 -14 -14 -14 -17 -19 -20 -17 -13 -12 -11 -13 -13 -12 -12 -12 -13 -13 -13 -14
-2 -2 -2 -3 -3 -3 -3 -3 -3 -4 -4 -4 -4 -5 -5 -6 -8 -8 -9 -10 -10 -11 -11 -13 -13 -13 -14 -17 -18 -20 -20 -14 -11 -11 -12 -12 -12 -12 -13 -14 -14 -14 -14 -15
-2 -3 -3 -3 -3 -3 -3 -3 -4 -4 -4 -5 -5 -5 -6 -7 -7 -8 -9 -9 -9 -10 -10 -12 -14 -14 -15 -18 -20 -21 -21 -16 -15 -15 -13 -12 -12 -13 -14 -14 -14 -14 -15 -16
-3 -3 -3 -3 -4 -4 -4 -4 -4 -4 -5 -5 -6 -6 -6 -6 -7 -7 -8 -8 -9 -11 -11 -12 -13 -15 -17 -19 -20 -22 -20 -17 -15 -13 -13 -13 -14 -14 -14 -14 -15 -15 -16 -17
-3 -3 -3 -3 -4 -4 -5 -6 -6 -6 -7 -7 -7 -7 -8 -8 -8 -8 -9 -10 -11 -11 -10 -11 -13 -16 -17 -16 -18 -19 -16 -14 -13 -13 -13 -14 -14 -14 -14 -15 -16 -17 -25 -30
-5 -4 -4 -5 -5 -6 -7 -7 -7 -8 -8 -8 -9 -9 -9 -10 -10 -10 -11 -10 -9 -9 -9 -11 -14 -13 -11 -12 -13 -13 -13 -13 -13 -14 -14 -14 -14 -15 -16 -18 -26 -31 -31 -31
-5 -6 -6 -6 -7 -7 -7 -7 -7 -8 -8 -9 -9 -9 -10 -10 -10 -8 -8 -7 -8 -8 -10 -10 -11 -11 -12 -13 -13 -13 -13 -14 -14 -14 -14 -15 -16 -19 -27 -31 -31 -31 -30 -29
-5 -5 -6 -6 -6 -6 -6 -7 -7 -7 -8 -8 -8 -9 -9 -8 -8 -8 -8 -8 -9 -10 -10 -11 -11 -12 -13 -13 -13 -13 -14 -14 -14 -15 -17 -22 -29 -31 -32 -31 -31 -30 -29 -29

GFSNGP_850_dewp_168.txt.gz
Dewpoint
-4 -5 -3 -3 -3 -3 -2 -3 -1 -4 -5 -8 -6 -5 -7 -9 -8 -6 -5 -2 -1 -2 -3 -4 -4 -5 -10 -18 -22 -19 -17 -16 -16 -17 -17 -19 -23 -31 -35 -34 -33 -32 -34 -35
-5 -3 -3 -2 -2 -2 -2 -2 -2 -2 -2 -5 -5 -6 -5 -5 -5 -4 -4 -2 -1 -1 -3 -4 -4 -5 -10 -17 -20 -16 -15 -15 -16 -16 -17 -20 -25 -33 -33 -33 -32 -32 -32 -31
-0 -2 -1 -0 -2 -1 -2 -1 -2 -1 -3 -3 -3 -3 -4 -4 -3 -3 -1 -0 -0 -1 -2 -4 -4 -5 -10 -17 -19 -15 -15 -15 -16 -15 -16 -19 -27 -31 -29 -29 -28 -28 -28 -28
1 -0 1 -4 -5 -4 -3 -3 -2 -2 -3 -4 -4 -4 -3 -2 0 0 1 1 1 -0 -2 -4 -4 -6 -12 -20 -15 -15 -15 -15 -15 -15 -15 -18 -24 -26 -24 -26 -26 -26 -26 -25
1 0 -2 -4 -6 -5 -4 -3 -5 -4 -4 -4 -2 1 0 1 2 2 1 1 1 1 0 -3 -3 -5 -18 -18 -17 -14 -15 -15 -14 -14 -14 -16 -18 -20 -18 -20 -24 -28 -28 -26
1 2 0 -3 -4 -2 -1 0 -4 -2 -1 1 -0 0 -1 1 2 2 1 1 1 0 -0 -1 -2 -7 -19 -19 -14 -14 -15 -15 -14 -14 -14 -16 -17 -17 -15 -15 -19 -25 -29 -29
1 2 1 -4 -1 -2 0 -1 -3 -0 0 1 -0 -0 -1 0 2 1 1 0 -0 -2 -3 -3 -4 -15 -17 -14 -14 -15 -14 -14 -14 -13 -14 -16 -17 -15 -15 -15 -17 -20 -26 -28
1 2 2 -1 -1 0 -1 1 1 -0 -1 0 0 -0 -1 0 1 1 0 -1 -2 -4 -6 -7 -11 -16 -14 -13 -13 -14 -13 -13 -13 -14 -16 -17 -16 -16 -15 -14 -16 -19 -22 -25
0 2 -1 -2 -2 -3 -1 1 1 1 -1 -1 -0 -0 -1 -0 0 -0 -1 -2 -4 -7 -10 -14 -16 -13 -13 -13 -13 -13 -13 -13 -14 -16 -17 -17 -17 -16 -15 -15 -16 -18 -20 -24
2 1 1 -1 -3 -0 1 2 1 1 1 -1 -1 -1 -1 -1 -1 -1 -2 -3 -5 -8 -9 -10 -11 -12 -13 -13 -12 -12 -12 -13 -17 -19 -19 -17 -16 -15 -15 -16 -17 -19 -23 -26
0 -1 -2 -1 -0 1 1 1 2 1 0 -1 -1 -1 -1 -1 -2 -2 -3 -4 -5 -7 -9 -10 -11 -12 -12 -12 -12 -11 -12 -16 -18 -20 -20 -18 -16 -16 -17 -19 -23 -23 -24 -26
-2 -5 -2 -0 -3 -2 -1 1 2 1 -0 -1 -1 -1 -1 -2 -2 -3 -4 -5 -6 -8 -9 -10 -11 -12 -12 -11 -11 -11 -14 -18 -20 -20 -19 -18 -16 -16 -16 -19 -17 -16 -18 -19
-5 -7 -5 -1 -0 -0 -3 -1 0 1 -1 -1 -1 -1 -2 -3 -3 -4 -5 -6 -7 -8 -9 -9 -11 -11 -11 -10 -11 -13 -16 -17 -17 -18 -17 -17 -16 -15 -14 -15 -14 -14 -15 -16
-7 -5 -1 -0 0 -0 -3 -3 -0 1 -0 -1 -1 -2 -2 -3 -3 -4 -5 -7 -9 -8 -10 -11 -10 -11 -11 -11 -11 -11 -12 -12 -14 -15 -15 -15 -14 -15 -14 -13 -13 -13 -13 -14
-6 -5 -5 -5 -5 -3 -2 -2 -1 1 -1 -1 -1 -2 -3 -4 -3 -4 -5 -9 -11 -11 -11 -11 -11 -11 -11 -11 -11 -11 -12 -13 -13 -13 -13 -13 -14 -13 -13 -13 -13 -12 -12 -14
-6 -5 -2 -1 -3 -2 -1 -2 -1 -0 -2 -2 -2 -2 -4 -4 -4 -5 -6 -8 -11 -12 -12 -12 -12 -12 -12 -12 -12 -12 -12 -12 -12 -12 -12 -13 -13 -13 -13 -12 -12 -11 -14 -14
-3 -3 -4 -3 -4 -2 -1 -1 -2 -2 -2 -2 -3 -3 -5 -5 -5 -6 -7 -8 -10 -12 -12 -12 -12 -12 -12 -13 -13 -12 -12 -12 -12 -12 -12 -13 -13 -12 -12 -11 -12 -14 -14 -13
-3 -3 -3 -2 -1 -1 -2 -1 -0 -1 -1 -3 -3 -3 -4 -5 -6 -6 -8 -9 -10 -12 -12 -12 -12 -13 -13 -13 -13 -12 -12 -12 -12 -12 -12 -12 -12 -11 -12 -13 -14 -13 -13 -13
-1 -1 -1 -1 -1 -1 -0 0 -1 -0 -3 -4 -4 -4 -4 -4 -5 -7 -10 -11 -12 -12 -12 -13 -13 -13 -13 -13 -13 -13 -13 -14 -17 -15 -12 -12 -13 -14 -14 -13 -13 -12 -13 -13
-0 -1 0 0 0 -0 -1 -1 -2 -3 -4 -4 -4 -5 -6 -7 -9 -10 -11 -11 -11 -11 -13 -13 -14 -14 -14 -14 -14 -14 -16 -19 -18 -15 -13 -12 -13 -13 -12 -12 -12 -13 -13 -13
-2 -2 -1 -1 -2 -1 -1 -2 -3 -3 -4 -4 -5 -6 -6 -8 -8 -9 -10 -10 -11 -13 -12 -12 -13 -14 -14 -14 -14 -16 -18 -19 -16 -13 -12 -12 -12 -12 -12 -13 -13 -14 -14 -14
-2 -2 -3 -3 -3 -3 -3 -3 -3 -4 -4 -4 -5 -5 -6 -7 -8 -9 -10 -9 -10 -10 -10 -11 -13 -13 -13 -14 -16 -18 -20 -19 -14 -12 -12 -12 -12 -13 -13 -14 -14 -14 -14 -15
-3 -3 -3 -3 -3 -3 -3 -4 -4 -4 -4 -4 -5 -5 -6 -7 -7 -8 -8 -9 -9 -9 -10 -11 -13 -13 -13 -15 -18 -20 -21 -18 -14 -13 -13 -13 -13 -14 -14 -14 -14 -15 -15 -16
-3 -3 -3 -3 -4 -4 -4 -4 -4 -5 -5 -5 -6 -6 -6 -7 -7 -8 -8 -8 -9 -10 -11 -11 -12 -13 -15 -16 -16 -17 -17 -16 -14 -13 -13 -14 -14 -14 -15 -15 -15 -15 -16 -21
-3 -3 -3 -3 -4 -5 -5 -6 -6 -6 -7 -7 -7 -7 -8 -8 -8 -8 -9 -10 -11 -10 -10 -10 -11 -12 -13 -12 -14 -14 -13 -13 -13 -13 -14 -14 -14 -14 -15 -16 -17 -23 -30 -31
-4 -4 -4 -5 -5 -6 -7 -7 -7 -8 -8 -8 -8 -9 -9 -9 -10 -10 -10 -10 -8 -8 -9 -10 -11 -11 -11 -12 -13 -13 -13 -13 -13 -14 -14 -14 -15 -16 -20 -27 -31 -32 -31 -31
-5 -5 -6 -6 -7 -7 -7 -7 -7 -8 -8 -8 -9 -9 -10 -9 -9 -7 -7 -8 -8 -9 -10 -10 -11 -11 -12 -13 -13 -13 -13 -14 -14 -14 -15 -18 -23 -30 -32 -32 -31 -31 -30 -29

GFSNGP_850_dewp_171.txt.gz
Dewpoint
-6 -6 -6 -6 -7 -5 -4 -4 -3 -4 -6 -6 -8 -7 -8 -9 -9 -9 -7 -1 -1 -1 -1 -2 -2 -3 -4 -8 -16 -21 -21 -17 -17 -17 -18 -21 -28 -33 -32 -30 -30 -32 -33 -31
-2 -4 -4 -1 -1 -1 -3 -3 -3 -4 -4 -6 -6 -6 -5 -5 -5 -5 -5 -5 -4 -3 -2 -2 -2 -3 -5 -8 -12 -20 -18 -15 -15 -16 -17 -21 -29 -32 -31 -30 -29 -29 -28 -27
-3 -3 -2 -1 -0 -2 -4 -5 -4 -3 -4 -6 -5 -4 -3 -3 -4 -5 -3 -3 -3 -3 -2 -2 -3 -3 -4 -7 -19 -18 -14 -12 -14 -15 -17 -22 -30 -30 -28 -27 -26 -26 -26 -25
-0 -1 1 -3 -6 -4 -3 -3 -4 -4 -4 -5 -5 -4 -4 -4 -3 -1 -0 -1 -1 -1 -1 -2 -3 -4 -5 -11 -16 -15 -7 -13 -14 -15 -16 -22 -28 -26 -25 -26 -25 -25 -24 -24
0 -2 -4 -4 -6 -5 -4 -3 -5 -5 -5 -5 -4 -2 0 0 2 2 1 1 1 0 -0 -2 -3 -4 -6 -10 -13 -14 -8 -14 -14 -15 -15 -19 -23 -22 -21 -24 -26 -27 -27 -25
1 1 -1 -5 -4 -2 -2 -2 -0 -0 -0 -0 0 2 1 -0 2 2 1 1 1 1 -0 -3 -4 -4 -6 -10 -16 -12 -15 -15 -14 -14 -15 -16 -18 -18 -17 -19 -23 -27 -29 -29
0 -1 -2 -3 -4 -1 -1 -3 0 1 1 1 1 0 -1 -1 2 2 1 1 1 0 0 -2 -4 -4 -7 -16 -16 -16 -14 -14 -14 -14 -14 -15 -17 -16 -16 -18 -20 -24 -27 -30
0 1 -1 -3 -1 0 -1 0 -0 1 1 1 1 0 -1 -0 1 1 1 0 -0 -1 -2 -2 -3 -4 -10 -18 -16 -14 -14 -14 -14 -14 -14 -16 -18 -17 -16 -18 -19 -21 -23 -27
1 -1 -2 -2 -2 -3 -2 -1 1 2 1 1 1 0 -0 -0 0 0 -0 -1 -2 -4 -4 -3 -3 -9 -15 -16 -14 -14 -14 -13 -13 -13 -14 -17 -18 -17 -17 -17 -17 -19 -21 -25
2 -0 -0 -5 -4 -4 -2 2 1 2 2 1 1 -0 -0 -1 -0 -0 -1 -2 -4 -7 -6 -8 -11 -14 -15 -14 -13 -13 -13 -13 -13 -14 -15 -17 -16 -16 -16 -17 -18 -20 -22 -24
2 1 -1 -1 -4 -3 0 -1 0 1 2 1 -0 -0 -1 -1 -1 -1 -1 -3 -5 -8 -10 -13 -15 -13 -12 -13 -13 -13 -12 -12 -12 -14 -17 -17 -17 -16 -16 -17 -19 -21 -22 -22
0 -3 -4 -5 -7 -6 -1 -1 -1 2 3 0 -1 -1 -1 -1 -2 -2 -2 -3 -6 -8 -9 -10 -11 -12 -12 -12 -13 -12 -12 -12 -14 -17 -17 -17 -17 -16 -16 -17 -20 -18 -17 -19
-3 -5 -6 -7 -5 -5 -3 0 -1 -2 2 2 -1 -1 -2 -2 -2 -3 -3 -4 -5 -7 -9 -10 -11 -12 -12 -12 -11 -11 -11 -13 -16 -18 -19 -18 -17 -16 -15 -16 -16 -15 -15 -15
-10 -7 -5 -7 -4 -3 -2 -2 -3 -3 1 1 -1 -1 -2 -3 -3 -3 -4 -5 -7 -8 -10 -9 -11 -11 -12 -11 -11 -12 -14 -16 -18 -18 -18 -17 -16 -15 -15 -14 -14 -13 -13 -13
-6 -7 -7 -6 -5 -5 -4 -2 -1 -2 0 0 -1 -2 -2 -3 -4 -4 -5 -7 -8 -8 -9 -10 -11 -11 -11 -11 -11 -11 -12 -12 -13 -14 -14 -15 -14 -14 -14 -13 -13 -13 -12 -12
-6 -6 -6 -4 -3 -3 -3 -3 -1 -1 0 -1 -1 -2 -3 -4 -4 -4 -6 -10 -10 -10 -11 -11 -11 -11 -11 -11 -11 -10 -11 -12 -13 -13 -13 -13 -13 -13 -13 -13 -13 -13 -12 -11
-4 -3 -3 -4 -4 -4 -4 -3 -1 -1 -1 -1 -1 -2 -4 -4 -4 -5 -7 -11 -12 -12 -12 -12 -11 -12 -12 -12 -12 -11 -12 -12 -12 -12 -12 -12 -12 -12 -12 -13 -12 -12 -11 -13
-3 -3 -3 -3 -2 -2 -1 -1 -2 -2 -0 -1 -2 -3 -5 -5 -5 -6 -7 -8 -10 -11 -11 -12 -11 -12 -12 -13 -13 -12 -12 -13 -12 -12 -12 -12 -12 -12 -12 -12 -11 -12 -13 -13
-1 -1 -1 -1 -1 -0 -1 -1 0 1 0 -0 -1 -3 -5 -5 -6 -7 -7 -8 -9 -11 -12 -12 -12 -12 -13 -13 -13 -12 -12 -12 -12 -12 -13 -12 -12 -12 -12 -13 -13 -13 -13 -13
-1 -1 -0 0 -0 -0 0 -0 0 0 -2 -3 -3 -3 -4 -4 -5 -6 -8 -9 -11 -12 -12 -13 -13 -13 -13 -13 -13 -13 -13 -13 -15 -17 -15 -14 -13 -13 -14 -13 -13 -12 -12 -13
-2 -1 -1 -1 -1 1 0 -1 -2 -3 -4 -4 -4 -4 -5 -6 -8 -9 -11 -12 -12 -12 -12 -13 -13 -13 -14 -14 -13 -13 -14 -16 -18 -17 -14 -13 -13 -13 -13 -13 -13 -12 -13 -14
-2 -3 -3 -2 -2 -1 -1 -3 -3 -3 -4 -4 -6 -7 -7 -8 -9 -10 -11 -11 -11 -12 -12 -11 -12 -13 -13 -13 -13 -14 -16 -18 -16 -14 -12 -12 -13 -13 -13 -13 -13 -14 -14 -15
-3 -3 -3 -3 -3 -3 -3 -3 -4 -4 -4 -5 -5 -6 -6 -7 -8 -9 -10 -10 -11 -10 -10 -10 -11 -13 -13 -13 -14 -16 -19 -19 -15 -12 -12 -14 -13 -13 -13 -14 -14 -15 -15 -15
-3 -3 -3 -3 -4 -4 -4 -4 -4 -4 -4 -5 -5 -6 -6 -7 -8 -9 -9 -9 -9 -9 -9 -10 -11 -13 -13 -14 -17 -18 -17 -16 -14 -14 -13 -13 -13 -14 -14 -15 -15 -15 -16 -16
-3 -3 -3 -4 -4 -4 -5 -5 -5 -5 -5 -6 -6 -6 -7 -8 -8 -8 -8 -8 -9 -9 -10 -11 -11 -11 -13 -13 -13 -14 -14 -14 -13 -13 -13 -14 -14 -15 -15 -15 -16 -17 -21 -28
-3 -3 -3 -4 -4 -5 -6 -6 -6 -7 -7 -7 -7 -7 -8 -8 -8 -9 -9 -10 -10 -10 -9 -9 -9 -10 -11 -11 -12 -12 -12 -13 -13 -13 -14 -14 -15 -16 -17 -20 -26 -31 -32 -32
-4 -4 -4 -5 -6 -7 -7 -7 -8 -8 -8 -8 -8 -9 -9 -9 -10 -10 -9 -8 -8 -8 -9 -9 -10 -11 -11 -12 -12 -13 -13 -13 -14 -14 -15 -16 -19 -26 -31 -32 -32 -32 -31 -30